Temperature
20 20 20 20 18 16 18 18 18 18 18 18 18 18 17 17 17 17 17 17 17 17 17 17 17 17 17 17 17 17 17 17 17 17 17 17 17 17 17 18 18 18 17 18 18 18 18 18 18
21 21 20 20 16 17 18 18 18 19 19 19 18 18 17 17 17 17 17 17 17 17 17 17 17 17 17 17 17 17 17 17 17 17 17 17 17 17 17 17 17 17 17 17 17 17 17 17 18
21 21 20 16 17 17 19 19 18 19 19 19 18 18 17 17 17 17 17 17 17 17 17 17 17 17 17 17 17 17 17 17 17 17 17 17 17 17 17 17 17 17 17 17 17 17 17 17 17
21 21 20 17 18 18 18 19 19 19 19 19 18 17 17 17 17 17 17 17 17 17 17 17 17 17 17 17 17 16 16 16 17 17 17 17 17 17 17 17 17 17 17 17 17 17 17 17 17
21 20 17 17 18 18 18 19 19 19 18 18 18 17 17 17 17 17 17 17 17 17 17 17 16 16 16 16 16 16 16 16 16 17 16 16 16 16 16 16 16 16 16 16 17 17 17 17 17
21 18 16 17 18 19 19 19 19 18 18 18 18 17 17 17 17 17 17 17 17 17 17 17 16 16 16 16 16 16 16 16 16 16 16 16 16 16 16 16 16 16 16 16 16 16 16 16 16
20 16 17 18 18 19 20 20 19 18 18 18 18 17 17 17 17 17 17 17 17 17 17 16 16 16 16 16 16 16 16 16 16 16 16 16 16 16 16 16 16 16 16 16 16 16 16 16 16
21 16 17 17 18 19 20 20 19 19 18 18 18 17 17 17 17 17 17 17 17 17 16 16 16 16 16 16 16 16 16 16 16 16 16 16 16 16 16 16 16 16 16 16 16 16 16 16 16
21 16 17 18 18 19 19 19 19 19 19 18 18 18 18 18 18 17 17 17 17 17 16 16 16 16 16 16 16 16 16 16 16 16 16 16 16 16 16 16 16 16 16 16 16 16 16 16 16
20 17 18 19 18 19 19 19 19 19 18 18 18 18 18 18 18 17 17 17 17 17 16 16 16 16 16 16 16 16 16 16 16 16 16 16 16 16 15 15 15 16 16 16 16 16 16 16 16
19 18 19 19 20 20 19 19 19 19 17 18 18 18 18 18 17 17 17 17 17 17 17 16 16 16 16 16 16 16 16 16 16 16 16 15 15 15 15 15 15 15 16 16 16 15 15 16 15
19 19 19 20 20 20 19 19 19 19 19 20 19 19 18 18 18 17 17 17 17 17 17 17 16 16 16 16 16 16 16 16 16 15 15 15 15 15 15 15 15 15 15 15 15 15 15 15 15
19 19 20 20 20 20 20 19 19 19 19 19 19 18 18 18 18 18 17 17 17 17 17 17 16 16 16 16 16 16 16 16 15 15 15 15 15 15 15 15 15 15 15 15 15 15 15 15 15
20 20 20 20 20 20 19 19 19 19 19 19 19 18 18 18 18 18 17 17 17 17 17 17 16 16 16 16 16 16 15 15 15 15 15 15 15 15 15 15 15 15 15 15 15 15 15 15 15
20 19 19 19 20 20 19 18 18 19 19 19 18 18 18 18 18 18 18 18 17 17 17 17 16 16 16 16 16 16 15 15 15 15 15 15 15 15 15 15 15 15 15 15 15 15 15 15 15
19 19 18 19 19 19 19 18 18 19 19 18 18 18 18 18 18 18 18 18 17 17 17 17 16 16 16 16 16 16 15 15 15 15 15 15 15 15 15 15 15 15 15 15 15 15 15 15 15
18 18 18 19 19 19 18 18 18 19 18 17 18 18 18 18 18 18 18 18 17 17 17 17 16 16 16 16 16 15 15 15 15 15 15 15 15 15 15 15 15 15 15 15 15 15 15 15 14
18 18 18 18 19 18 18 17 17 18 18 17 17 18 18 18 18 18 18 18 17 17 17 17 17 16 16 16 16 15 15 15 15 15 15 15 15 15 15 15 15 15 15 15 15 15 14 14 14
19 18 18 18 19 18 17 17 17 17 17 17 17 17 18 18 18 18 18 18 17 17 17 17 17 16 16 16 16 16 15 15 15 15 15 15 15 15 15 14 14 14 15 14 14 14 14 14 14
19 18 18 18 19 18 17 17 17 17 17 17 17 17 18 18 18 18 18 18 17 17 17 17 17 16 16 16 16 15 15 15 15 15 15 15 15 15 15 14 14 14 14 14 14 14 14 14 14
19 18 18 19 19 18 18 17 17 17 17 17 17 17 18 18 18 18 18 18 17 17 17 17 17 16 16 16 16 15 15 15 15 15 15 15 15 15 15 14 14 14 14 14 14 14 14 14 14
18 19 19 19 18 17 18 16 17 17 16 16 17 17 17 18 18 18 18 17 17 17 17 17 17 16 16 16 16 16 15 15 15 15 15 15 15 15 15 14 14 14 14 14 14 14 14 14 14
19 19 19 19 18 17 17 16 16 16 17 16 16 17 17 18 18 18 18 18 17 17 17 17 17 16 16 16 16 16 15 15 15 15 15 15 15 14 14 14 14 14 14 14 14 14 14 14 14
19 18 17 16 16 17 17 16 16 16 17 17 17 17 18 18 18 18 18 18 17 17 17 17 16 16 16 16 16 16 15 15 15 15 15 15 15 15 14 14 14 14 14 14 14 14 14 14 14
18 17 16 16 16 16 16 16 16 17 17 17 17 18 18 18 18 18 18 17 17 17 17 17 16 16 16 16 16 16 16 15 15 15 15 15 15 15 15 14 15 14 14 14 14 14 14 14 14
18 17 16 17 16 16 16 16 16 17 17 18 18 18 18 18 18 18 18 18 17 17 17 17 16 16 16 16 16 16 16 15 15 15 15 15 15 15 15 15 15 15 14 14 14 14 14 14 14
18 16 16 15 16 16 15 16 16 17 17 16 16 17 17 17 18 18 18 17 17 17 17 16 16 16 16 16 16 16 15 15 15 15 15 15 15 15 15 15 15 15 14 14 14 14 14 14 14
18 16 15 15 16 16 16 16 16 17 16 16 15 15 16 17 17 17 17 17 17 17 17 16 16 16 16 16 16 16 15 15 15 15 15 15 15 15 15 15 15 14 14 14 14 14 14 14 14
17 16 15 14 15 15 16 16 17 16 16 15 15 16 16 17 17 17 17 17 17 17 16 16 16 16 16 16 16 15 15 15 15 15 15 15 15 15 15 15 14 14 14 14 14 14 14 14 14
17 16 15 16 15 14 14 15 17 16 16 16 15 16 16 16 17 17 17 17 17 16 16 16 16 16 16 15 15 15 15 15 15 15 15 15 15 15 15 15 14 14 14 14 14 14 14 14 14
Wind_Speed
1 3 3 4 6 6 3 2 1 2 3 3 4 5 5 4 2 2 1 0 0 1 2 3 5 6 7 8 8 8 8 9 9 9 9 10 10 10 11 11 11 11 11 11 12 11 12 12 12
2 3 4 5 5 4 2 2 1 1 4 3 4 5 5 4 2 2 0 0 1 1 2 3 4 6 7 7 7 8 8 9 9 9 9 9 9 10 10 11 10 11 11 11 12 12 12 12 12
2 4 4 5 4 3 2 1 2 3 4 2 4 4 4 2 1 2 2 1 2 2 2 2 4 5 6 7 7 8 8 8 8 8 8 9 9 9 10 11 10 11 11 11 12 12 12 12 12
3 5 5 6 5 0 2 2 2 4 3 4 4 4 3 2 1 2 3 3 2 2 2 2 4 5 6 7 7 7 7 8 8 8 8 8 9 9 10 11 11 11 11 12 12 12 12 12 11
4 5 6 4 3 2 1 0 2 3 3 3 4 4 2 4 2 4 4 3 3 1 2 3 4 5 5 6 7 7 7 8 8 8 8 8 9 9 10 10 10 11 11 12 12 13 13 12 11
5 5 5 3 2 2 2 1 3 4 3 3 4 4 1 2 2 3 3 3 2 1 2 3 4 5 5 5 6 7 7 7 7 8 8 8 9 9 10 10 10 10 11 12 12 13 14 14 14
5 5 4 3 1 1 1 2 3 4 3 2 4 4 0 1 1 2 3 3 2 2 3 4 4 5 5 5 6 7 7 7 6 6 7 7 8 9 9 9 10 10 11 11 12 13 14 14 14
5 5 4 2 2 1 0 2 2 3 3 3 4 5 3 3 2 4 4 4 3 2 3 3 4 5 5 5 6 6 7 7 7 7 7 7 8 8 8 8 9 10 11 11 12 12 13 14 14
4 5 3 4 5 2 1 2 2 2 5 3 1 3 3 5 6 5 4 3 2 1 2 2 3 4 4 4 5 6 7 7 8 7 8 8 7 7 7 8 9 10 11 11 11 12 13 13 13
5 4 4 4 5 4 2 3 3 3 3 2 2 2 4 6 6 5 3 2 1 1 1 1 1 2 3 3 5 6 6 7 7 7 7 7 7 7 8 9 10 11 11 11 12 12 12 11 10
4 4 2 1 3 4 3 2 2 5 2 4 5 5 6 5 5 4 3 3 3 2 1 0 0 1 2 2 3 4 5 6 6 7 7 7 7 7 8 8 8 9 9 9 10 11 10 9 8
3 1 2 1 2 3 3 3 2 2 4 4 6 7 6 6 5 5 4 3 2 2 2 1 1 1 1 2 2 3 3 3 4 5 5 5 4 4 5 5 6 7 7 7 8 8 9 9 9
3 1 1 2 3 3 4 3 2 1 0 4 6 6 6 6 4 3 2 2 2 3 2 1 2 2 2 2 1 2 2 2 3 4 4 5 4 3 4 4 5 6 7 7 6 7 7 7 7
2 2 2 2 3 2 4 1 1 2 3 5 5 5 4 5 4 3 2 2 3 3 2 2 2 2 3 2 1 2 2 3 3 3 3 4 5 4 4 4 4 5 6 6 6 6 6 6 6
3 4 3 1 1 2 3 2 2 3 5 5 4 4 4 3 3 4 4 4 4 3 2 3 3 3 3 2 2 2 2 4 3 3 3 4 5 5 5 3 3 4 6 7 7 7 6 5 5
3 3 1 3 1 2 4 3 4 3 6 5 4 3 3 3 3 4 3 3 3 3 3 2 3 4 3 2 2 2 3 4 3 3 3 4 5 6 5 4 3 5 6 6 4 4 5 5 4
4 1 1 3 1 2 3 4 3 3 6 5 4 4 4 3 3 3 3 4 4 4 4 3 3 4 3 3 3 3 4 4 3 3 3 4 6 6 6 4 4 6 5 4 4 4 4 4 4
2 1 2 3 1 3 2 5 4 2 5 5 5 5 4 5 5 3 3 3 4 4 4 4 4 3 3 3 3 3 3 3 3 3 3 4 5 6 6 5 5 5 4 4 4 5 4 3 4
4 3 2 3 2 3 4 6 6 3 4 5 5 5 5 6 4 2 2 4 4 4 4 4 4 3 3 2 2 2 1 1 2 2 3 4 5 5 5 4 4 4 4 4 4 4 4 3 2
3 2 2 3 0 3 3 5 5 3 5 6 7 7 7 5 2 2 2 3 4 4 4 4 4 4 3 2 2 1 1 1 1 1 3 4 4 4 4 4 3 3 4 4 3 3 3 2 2
3 5 5 3 2 1 1 5 5 3 3 3 5 5 6 7 6 5 4 4 4 4 5 5 4 4 3 3 3 3 3 3 2 2 2 2 3 3 4 4 4 3 3 3 2 3 3 2 2
4 5 5 3 1 2 1 3 6 4 3 4 5 5 6 6 6 5 5 5 5 5 4 4 4 4 3 4 4 4 2 1 1 0 0 1 2 3 3 4 4 3 3 2 2 2 2 3 2
5 1 2 2 3 1 0 2 7 2 4 6 6 7 7 6 7 7 7 7 6 5 5 4 4 3 3 4 5 4 3 2 1 1 1 1 2 2 3 3 3 3 2 2 2 2 2 2 2
3 4 4 4 3 2 3 4 6 4 6 5 5 6 6 6 6 6 5 5 4 4 4 4 4 4 3 4 4 5 5 3 3 2 1 1 1 1 2 3 3 3 2 2 2 2 3 2 2
5 5 3 3 2 5 3 4 7 5 5 5 6 6 5 5 5 5 6 5 5 5 5 4 5 4 4 4 4 4 5 5 5 3 3 2 1 0 1 1 2 2 2 3 2 2 2 2 2
3 7 6 4 4 4 2 5 6 4 3 2 3 3 3 4 4 5 6 6 6 6 6 5 5 4 4 4 4 4 4 3 3 3 3 3 2 2 2 2 2 2 3 3 3 2 1 2 2
5 3 5 5 1 2 5 6 6 2 2 2 0 2 3 4 4 4 4 5 5 6 6 6 6 4 4 5 4 4 3 3 3 3 2 2 2 1 2 2 2 2 2 3 3 2 1 2 1
4 7 5 4 3 3 5 4 4 4 4 2 2 2 3 3 3 3 4 4 4 4 4 4 5 5 4 4 4 4 4 4 3 3 3 2 2 1 2 2 2 2 2 3 3 2 1 2 1
2 3 4 3 4 4 3 6 4 6 5 4 3 3 3 3 3 3 3 3 3 3 4 4 4 3 3 3 3 3 3 3 3 3 3 3 2 2 2 2 2 2 2 2 3 2 2 2 1
3 5 6 4 3 4 3 6 4 2 2 3 2 2 2 3 3 3 2 3 3 3 3 4 4 3 3 3 3 3 2 2 2 2 3 3 3 2 3 3 3 3 3 3 3 3 3 3 2
Wind_Direction
16 82 81 61 55 54 49 355 2 43 51 43 57 77 89 80 84 123 273 277 83 15 7 13 43 51 51 54 60 66 67 68 70 75 75 74 74 74 75 75 74 76 78 80 82 85 86 88 88
89 89 58 60 76 69 7 331 60 93 139 128 68 69 75 65 61 107 325 283 81 54 23 14 50 57 58 59 65 68 69 70 71 75 75 75 74 74 75 73 71 75 76 78 80 85 85 87 88
85 58 75 66 82 127 149 244 129 83 104 103 73 56 78 89 102 167 225 159 87 50 24 9 58 65 64 62 65 68 71 70 70 73 76 75 75 75 77 77 73 73 74 75 78 83 83 84 87
78 46 55 67 73 151 182 198 145 110 79 57 87 67 53 24 160 173 145 125 97 46 26 25 71 71 69 63 65 69 69 67 67 69 75 77 77 77 75 77 76 75 74 74 76 80 81 82 86
62 71 62 58 32 354 358 222 107 91 78 62 86 92 38 350 57 116 128 126 108 51 30 33 65 69 69 67 66 67 67 65 64 66 72 76 76 77 77 75 74 74 74 74 74 75 79 80 81
57 66 82 86 16 354 359 44 93 88 96 94 92 102 64 346 84 129 125 118 107 76 44 40 48 57 61 63 63 62 62 62 63 65 68 72 76 75 76 75 73 73 74 74 74 72 74 76 78
97 87 111 130 101 11 66 90 105 113 105 125 127 109 73 307 223 115 95 94 87 72 55 32 27 33 40 46 58 58 55 55 59 65 67 72 75 73 71 71 73 74 75 76 76 74 73 74 76
113 97 89 116 141 223 96 96 97 115 115 109 118 135 188 221 144 95 76 67 64 62 50 32 26 27 28 29 43 52 53 53 55 61 68 71 68 66 64 61 70 75 77 79 78 76 74 73 76
84 79 130 183 174 186 146 116 78 74 95 77 90 166 185 138 115 95 73 49 52 67 25 28 27 22 23 29 41 46 47 45 47 52 63 63 56 53 54 59 70 75 79 80 81 80 75 74 73
79 117 191 196 176 164 141 132 141 99 83 69 60 65 112 121 124 127 134 150 178 209 268 24 27 14 20 28 44 44 45 46 48 52 57 61 58 54 58 58 67 73 77 77 76 76 73 71 67
104 149 177 158 162 142 125 110 118 127 169 199 179 164 138 133 143 158 172 187 202 205 207 175 179 39 39 36 54 51 52 52 51 57 64 67 62 56 54 52 51 58 66 70 71 69 68 71 71
103 100 150 160 130 122 136 131 114 161 222 200 171 157 147 152 172 184 187 199 191 171 203 185 135 104 73 67 65 64 60 54 50 56 71 77 69 60 58 56 53 59 68 74 75 74 71 71 71
92 81 69 107 101 116 111 121 142 234 248 116 122 132 153 167 182 189 189 184 170 177 186 174 143 137 121 86 69 74 70 71 64 63 74 89 87 76 71 67 65 66 74 78 80 78 75 70 69
116 93 69 70 86 96 119 98 120 245 133 119 132 155 172 180 183 169 163 172 183 187 180 162 146 145 122 104 86 77 68 76 78 74 77 94 101 99 91 78 74 71 77 84 85 84 81 72 69
89 72 34 18 123 164 112 354 253 212 136 140 163 178 180 192 186 193 195 185 186 184 169 155 145 123 116 109 91 76 71 84 78 72 82 97 104 105 103 91 78 80 89 92 90 81 80 76 68
58 60 16 298 164 165 131 261 272 165 147 169 191 196 194 213 212 215 203 183 171 159 146 147 136 116 107 103 89 73 75 83 79 74 81 95 104 110 106 97 88 96 96 95 91 85 81 73 69
36 42 284 297 222 146 160 240 273 154 163 186 201 207 205 217 235 226 199 181 170 166 154 136 118 119 112 97 79 71 72 71 68 70 78 95 101 107 106 100 98 101 95 88 97 81 89 89 79
220 223 251 258 259 130 191 252 273 193 185 200 205 208 210 218 229 218 192 176 165 157 149 136 123 114 100 82 71 60 56 49 52 59 75 94 101 106 104 101 100 103 94 83 87 90 78 85 87
171 174 240 260 228 163 223 258 272 223 202 210 211 212 219 228 238 206 174 160 153 145 143 143 136 129 115 97 94 86 64 32 28 37 73 89 100 109 106 104 97 98 101 107 108 103 91 73 82
167 190 252 289 205 175 241 277 277 215 210 211 207 210 216 220 224 205 175 161 166 165 165 162 162 154 153 146 138 128 118 88 25 23 58 83 101 117 120 114 111 107 106 104 106 109 101 72 59
201 200 219 233 354 29 350 312 291 270 223 212 205 206 212 207 206 201 189 185 173 176 182 179 176 169 164 140 112 85 62 45 33 24 24 38 87 108 123 124 121 119 122 132 132 123 122 126 54
239 230 207 194 158 279 168 285 287 279 269 237 222 212 215 213 204 197 193 192 189 191 184 176 172 166 163 147 142 141 143 153 206 213 8 35 78 101 121 132 133 128 128 134 144 121 120 128 124
215 173 159 187 178 271 298 218 285 307 271 256 234 221 218 212 201 198 199 198 192 181 174 172 166 168 163 156 159 153 152 166 151 103 88 56 51 83 115 136 139 135 135 138 127 111 110 113 131
140 79 55 49 80 277 228 196 276 245 239 254 237 220 216 209 201 198 191 179 171 165 163 163 165 178 171 160 162 163 164 158 141 131 123 78 49 52 100 131 134 138 137 140 140 126 115 113 117
91 95 27 352 351 259 232 207 253 255 242 229 229 222 210 198 189 186 181 178 172 172 173 167 168 180 177 169 174 175 174 169 173 175 171 164 151 205 201 141 142 144 146 140 133 120 114 123 131
161 144 160 204 237 278 279 238 258 273 279 252 222 199 173 179 183 185 185 183 182 184 180 175 178 184 179 177 185 181 174 170 184 187 178 183 197 209 194 163 157 150 144 134 122 114 120 119 129
145 167 169 146 182 265 278 289 305 336 353 7 85 147 173 184 186 188 181 180 183 185 186 184 183 184 186 185 176 176 177 178 188 187 174 185 200 192 161 152 149 148 142 134 132 130 131 127 125
146 144 107 127 170 260 287 279 264 273 266 264 230 211 205 181 175 176 173 180 184 184 176 169 173 179 182 180 181 182 186 188 184 169 175 187 194 167 141 142 148 141 140 144 144 143 142 132 132
97 108 118 130 161 175 261 274 237 225 223 217 225 217 195 183 182 180 180 176 168 157 159 167 173 167 165 170 172 166 181 184 171 177 191 190 184 168 165 167 159 152 152 154 153 161 159 154 159
182 168 152 166 223 190 205 266 289 250 224 189 207 215 192 179 168 158 157 143 142 153 160 168 171 173 180 172 159 163 159 150 161 188 201 186 186 181 174 161 159 165 164 165 166 171 166 168 175
Height
1504 1504 1505 1506 1510 1522 1527 1523 1520 1519 1519 1519 1519 1519 1521 1523 1526 1531 1527 1524 1524 1523 1522 1521 1520 1520 1519 1519 1518 1518 1517 1517 1517 1517 1517 1517 1517 1517 1517 1517 1516 1516 1516 1516 1516 1516 1516 1516 1517
1504 1505 1506 1507 1519 1533 1530 1522 1520 1519 1519 1520 1520 1521 1522 1523 1524 1526 1525 1525 1524 1524 1523 1522 1522 1521 1520 1520 1520 1519 1519 1519 1518 1518 1518 1518 1518 1518 1518 1518 1518 1518 1518 1518 1518 1518 1518 1518 1518
1505 1506 1507 1512 1524 1531 1527 1521 1520 1519 1520 1520 1521 1522 1524 1525 1526 1526 1526 1526 1525 1525 1524 1523 1523 1522 1522 1521 1521 1521 1521 1520 1520 1520 1520 1520 1520 1520 1520 1519 1519 1519 1519 1519 1519 1519 1519 1519 1519
1506 1508 1510 1519 1526 1524 1521 1519 1519 1519 1520 1521 1522 1524 1525 1527 1527 1527 1527 1527 1526 1526 1525 1524 1524 1523 1523 1523 1522 1522 1522 1522 1522 1521 1521 1521 1521 1521 1521 1521 1521 1521 1521 1521 1521 1521 1520 1520 1520
1507 1509 1518 1527 1526 1522 1520 1519 1519 1520 1521 1522 1523 1525 1526 1528 1528 1528 1528 1528 1527 1527 1526 1526 1525 1525 1524 1524 1524 1524 1524 1524 1523 1523 1523 1523 1523 1523 1523 1522 1522 1522 1522 1522 1523 1522 1522 1521 1519
1508 1512 1527 1533 1527 1522 1520 1520 1520 1521 1522 1523 1524 1525 1528 1528 1528 1529 1529 1529 1529 1528 1528 1527 1527 1526 1526 1526 1525 1525 1525 1525 1525 1525 1525 1525 1524 1524 1524 1524 1524 1524 1524 1524 1524 1524 1523 1522 1520
1510 1518 1527 1529 1528 1524 1522 1521 1521 1522 1523 1524 1525 1526 1528 1529 1529 1530 1530 1530 1530 1530 1529 1529 1528 1528 1528 1527 1527 1527 1527 1527 1526 1526 1526 1526 1526 1526 1526 1526 1526 1526 1525 1525 1526 1526 1526 1525 1524
1510 1518 1526 1529 1528 1526 1522 1522 1522 1523 1524 1525 1525 1526 1528 1529 1530 1530 1531 1531 1531 1531 1531 1530 1530 1529 1529 1529 1529 1528 1528 1528 1528 1528 1528 1528 1528 1528 1528 1528 1527 1527 1527 1527 1527 1527 1528 1527 1527
1512 1522 1530 1527 1527 1524 1522 1522 1523 1524 1524 1525 1526 1526 1528 1529 1530 1531 1531 1532 1532 1532 1532 1532 1531 1531 1531 1530 1530 1530 1530 1529 1529 1529 1529 1529 1529 1529 1529 1529 1529 1529 1529 1529 1529 1529 1530 1530 1530
1513 1525 1524 1521 1520 1521 1521 1522 1523 1525 1525 1526 1526 1527 1528 1529 1530 1531 1531 1532 1532 1532 1533 1532 1532 1532 1532 1532 1532 1531 1531 1531 1531 1531 1531 1531 1531 1531 1531 1530 1531 1531 1531 1531 1531 1531 1531 1532 1532
1515 1521 1519 1519 1519 1520 1521 1523 1524 1524 1526 1526 1526 1527 1528 1529 1530 1531 1532 1532 1533 1533 1533 1533 1533 1533 1533 1533 1533 1533 1532 1532 1532 1532 1532 1532 1532 1532 1532 1532 1533 1533 1533 1533 1533 1533 1533 1533 1534
1517 1518 1518 1519 1519 1520 1521 1523 1524 1524 1525 1525 1526 1527 1528 1529 1530 1531 1532 1533 1533 1534 1534 1534 1534 1534 1534 1534 1534 1534 1534 1534 1534 1534 1534 1534 1534 1534 1534 1534 1534 1535 1535 1535 1535 1535 1535 1535 1536
1518 1519 1519 1519 1520 1521 1522 1523 1524 1524 1525 1526 1526 1527 1528 1529 1530 1532 1532 1533 1534 1534 1534 1535 1535 1535 1535 1535 1535 1535 1535 1535 1535 1535 1535 1535 1536 1536 1536 1536 1536 1536 1536 1537 1537 1537 1537 1537 1537
1519 1519 1520 1521 1521 1522 1523 1524 1525 1524 1525 1526 1526 1527 1528 1529 1531 1532 1532 1533 1534 1534 1535 1535 1536 1536 1536 1536 1536 1536 1536 1536 1536 1536 1537 1537 1537 1537 1537 1537 1537 1538 1538 1538 1538 1538 1538 1539 1539
1519 1521 1522 1522 1522 1523 1524 1526 1524 1524 1525 1525 1526 1527 1528 1529 1531 1531 1532 1533 1534 1534 1535 1536 1536 1537 1537 1537 1537 1537 1537 1537 1537 1538 1538 1538 1538 1538 1538 1539 1539 1539 1539 1539 1540 1540 1540 1540 1540
1521 1526 1530 1524 1522 1523 1527 1532 1524 1523 1524 1525 1526 1527 1528 1529 1530 1531 1532 1533 1534 1535 1535 1536 1537 1537 1538 1538 1538 1539 1539 1539 1539 1539 1539 1539 1539 1539 1539 1540 1540 1540 1540 1541 1541 1541 1541 1541 1542
1529 1534 1533 1527 1522 1523 1526 1529 1523 1523 1524 1524 1525 1526 1527 1528 1530 1531 1532 1533 1534 1535 1536 1536 1537 1538 1538 1539 1539 1540 1540 1540 1540 1540 1540 1540 1540 1540 1540 1541 1541 1541 1541 1542 1542 1542 1542 1542 1543
1534 1533 1532 1530 1524 1524 1527 1527 1522 1522 1523 1523 1524 1525 1526 1527 1528 1530 1531 1533 1534 1535 1536 1537 1537 1538 1539 1539 1540 1540 1541 1541 1541 1541 1541 1541 1541 1541 1541 1541 1542 1542 1543 1543 1543 1543 1543 1544 1544
1526 1529 1532 1528 1523 1525 1527 1526 1522 1521 1522 1522 1523 1523 1524 1526 1528 1529 1531 1532 1533 1535 1536 1537 1537 1538 1539 1539 1540 1540 1541 1541 1542 1542 1542 1542 1542 1542 1542 1542 1543 1543 1544 1544 1544 1544 1544 1544 1545
1525 1530 1530 1526 1522 1524 1526 1525 1520 1519 1520 1519 1520 1521 1522 1524 1526 1528 1529 1530 1532 1533 1535 1536 1537 1538 1539 1539 1540 1541 1541 1542 1542 1542 1543 1543 1543 1543 1543 1543 1544 1544 1544 1544 1545 1545 1545 1545 1545
1525 1528 1528 1527 1524 1524 1527 1528 1522 1518 1518 1518 1518 1519 1520 1522 1524 1526 1527 1529 1530 1532 1534 1535 1536 1537 1538 1539 1540 1541 1541 1542 1542 1543 1543 1543 1543 1543 1544 1544 1544 1545 1545 1545 1545 1546 1545 1545 1546
1527 1520 1521 1524 1530 1535 1531 1541 1525 1519 1517 1516 1516 1517 1517 1519 1521 1523 1525 1527 1529 1531 1533 1535 1536 1537 1538 1539 1539 1540 1541 1542 1542 1543 1543 1544 1544 1544 1544 1544 1545 1545 1546 1546 1546 1546 1546 1546 1546
1519 1516 1520 1523 1528 1535 1534 1539 1531 1520 1519 1515 1514 1514 1515 1517 1519 1521 1523 1525 1527 1529 1531 1533 1535 1536 1537 1538 1539 1540 1541 1542 1543 1543 1544 1544 1544 1544 1545 1545 1545 1545 1546 1546 1546 1546 1547 1547 1547
1515 1520 1524 1529 1534 1542 1534 1539 1534 1523 1516 1512 1511 1511 1512 1514 1516 1519 1521 1524 1526 1528 1530 1532 1534 1535 1536 1538 1538 1540 1540 1541 1542 1543 1543 1544 1544 1545 1545 1545 1545 1546 1546 1546 1547 1547 1547 1547 1547
1517 1530 1545 1545 1549 1545 1532 1534 1529 1514 1510 1509 1508 1509 1510 1512 1514 1516 1519 1521 1524 1526 1528 1530 1532 1534 1535 1537 1538 1539 1540 1541 1542 1543 1543 1544 1544 1545 1545 1545 1545 1546 1546 1546 1547 1547 1547 1547 1547
1520 1527 1544 1551 1551 1545 1533 1533 1521 1510 1508 1507 1507 1507 1509 1510 1512 1514 1516 1519 1521 1524 1526 1529 1531 1532 1534 1535 1537 1538 1539 1540 1541 1542 1543 1543 1544 1544 1545 1545 1545 1546 1546 1546 1546 1546 1546 1546 1546
1520 1525 1526 1538 1540 1545 1538 1528 1516 1508 1507 1506 1506 1507 1507 1509 1511 1513 1515 1517 1520 1522 1524 1527 1529 1531 1533 1534 1535 1537 1538 1539 1540 1541 1542 1543 1543 1544 1544 1545 1545 1545 1545 1546 1546 1546 1546 1546 1546
1514 1520 1531 1538 1546 1548 1539 1532 1526 1513 1510 1508 1507 1506 1507 1509 1510 1512 1514 1516 1518 1521 1523 1525 1527 1529 1531 1532 1534 1535 1536 1538 1539 1540 1541 1542 1542 1543 1543 1544 1544 1544 1544 1545 1545 1545 1545 1545 1545
1518 1522 1527 1535 1538 1546 1545 1535 1511 1508 1506 1506 1506 1506 1507 1508 1509 1511 1513 1515 1517 1519 1521 1523 1525 1527 1529 1530 1532 1533 1535 1536 1537 1539 1540 1541 1541 1542 1542 1543 1543 1543 1543 1543 1544 1544 1544 1544 1544
1513 1517 1525 1533 1536 1538 1541 1533 1505 1505 1504 1505 1505 1506 1507 1508 1509 1510 1512 1514 1516 1518 1520 1521 1523 1525 1527 1528 1530 1531 1533 1534 1535 1537 1538 1539 1540 1540 1541 1542 1542 1542 1542 1542 1542 1542 1543 1543 1543